,,Stat5,,Stat1,,Stat2,,Stat3,,Stat4,,Wind1,,Wind1,
time,status,PA1M_AVG,status,PR1M_SUM,status,RH1M_AVG,status,SR1M_AVG,status,TA1M_AVG,status,W1dAve1m,status,W1sAve1m,
2000-10-08, 00:00:00,VALID,919.414,VALID,0,VALID,99.648,VALID,-0.0169808,VALID,18.8981,VALID,109,VALID,0,
2000-10-08, 00:01:00,VALID,919.407,VALID,0,VALID,99.648,VALID,-0.0339617,VALID,18.9053,VALID,119,VALID,0,
2000-10-08, 00:02:00,VALID,919.395,VALID,0,VALID,99.6582,VALID,0,VALID,18.9085,VALID,200,VALID,0,
2000-10-08, 00:03:00,VALID,919.379,VALID,0,VALID,99.6646,VALID,0,VALID,18.9182,VALID,251,VALID,0,
2000-10-08, 00:04:00,VALID,919.37,VALID,0,VALID,99.6747,VALID,-0.0169808,VALID,18.9346,VALID,257,VALID,0,
2000-10-08, 00:05:00,VALID,919.362,VALID,0,VALID,99.6773,VALID,-0.0169808,VALID,18.9569,VALID,258,VALID,0,
2000-10-08, 00:06:00,VALID,919.351,VALID,0,VALID,99.6824,VALID,0,VALID,18.9863,VALID,256,VALID,0,
2000-10-08, 00:07:00,VALID,919.358,VALID,0,VALID,99.6658,VALID,0,VALID,18.9505,VALID,235,VALID,0,
2000-10-08, 00:08:00,VALID,919.361,VALID,0,VALID,99.6378,VALID,-0.0339617,VALID,18.915,VALID,212,VALID,0,
2000-10-08, 00:09:00,VALID,919.363,VALID,0,VALID,99.6328,VALID,0,VALID,18.8923,VALID,211,VALID,0,
2000-10-08, 00:10:00,VALID,919.364,VALID,0,VALID,99.6162,VALID,0,VALID,18.8568,VALID,211,VALID,0,
2000-10-08, 00:11:00,VALID,919.352,VALID,0,VALID,99.6226,VALID,0.0169808,VALID,18.831,VALID,211,VALID,0,
2000-10-08, 00:12:00,VALID,919.332,VALID,0,VALID,99.62,VALID,0,VALID,18.7922,VALID,211,VALID,0,
2000-10-08, 00:13:00,VALID,919.332,VALID,0,VALID,99.6213,VALID,0,VALID,18.7862,VALID,211,VALID,0,
2000-10-08, 00:14:00,VALID,919.293,VALID,0,VALID,99.6061,VALID,-0.0169808,VALID,18.744,VALID,211,VALID,0,
2000-10-08, 00:15:00,VALID,919.264,VALID,0,VALID,99.6086,VALID,-0.0339617,VALID,18.7018,VALID,211,VALID,0,
2000-10-08, 00:16:00,VALID,919.231,VALID,0,VALID,99.5997,VALID,-0.0509425,VALID,18.6533,VALID,207,VALID,0,
2000-10-08, 00:17:00,VALID,919.188,VALID,0,VALID,99.587,VALID,-0.0169808,VALID,18.6148,VALID,194,VALID,0,
2000-10-08, 00:18:00,VALID,919.172,VALID,0,VALID,99.587,VALID,-0.0509425,VALID,18.5663,VALID,188,VALID,0,
2000-10-08, 00:19:00,VALID,919.154,VALID,0,VALID,99.5908,VALID,-0.0339617,VALID,18.5276,VALID,162,VALID,0,
2000-10-08, 00:20:00,VALID,919.128,VALID,0,VALID,99.5603,VALID,-0.0679233,VALID,18.4791,VALID,146,VALID,0,
2000-10-08, 00:21:00,VALID,919.095,VALID,0,VALID,99.5298,VALID,-0.0509425,VALID,18.4212,VALID,133,VALID,0.584375,
2000-10-08, 00:22:00,VALID,919.056,VALID,0,VALID,99.5628,VALID,-0.0339617,VALID,18.3855,VALID,129,VALID,0.814556,
2000-10-08, 00:23:00,VALID,919.019,VALID,0,VALID,99.5946,VALID,0,VALID,18.3693,VALID,135,VALID,0.892628,
2000-10-08, 00:24:00,VALID,918.986,VALID,0,VALID,99.6022,VALID,0,VALID,18.3435,VALID,134,VALID,0.919141,
2000-10-08, 00:25:00,VALID,918.97,VALID,0,VALID,99.6277,VALID,0,VALID,18.3274,VALID,143,VALID,0.830236,
2000-10-08, 00:26:00,VALID,918.965,VALID,0,VALID,99.6417,VALID,-0.0169808,VALID,18.3207,VALID,163,VALID,0.57897,
2000-10-08, 00:27:00,VALID,918.95,VALID,0,VALID,99.6544,VALID,-0.0169808,VALID,18.2854,VALID,185,VALID,0.420573,
2000-10-08, 00:28:00,VALID,918.945,VALID,0,VALID,99.6404,VALID,-0.0169808,VALID,18.2757,VALID,219,VALID,0.0117188,
2000-10-08, 00:29:00,VALID,918.935,VALID,0,VALID,99.6315,VALID,0,VALID,18.2335,VALID,219,VALID,0,
2000-10-08, 00:30:00,VALID,918.907,VALID,0,VALID,99.6429,VALID,-0.0169808,VALID,18.2118,VALID,215,VALID,0,
2000-10-08, 00:31:00,VALID,918.896,VALID,0,VALID,99.6709,VALID,-0.0169808,VALID,18.2019,VALID,223,VALID,0,
2000-10-08, 00:32:00,VALID,918.871,VALID,0,VALID,99.7002,VALID,-0.0169808,VALID,18.1979,VALID,217,VALID,0,
2000-10-08, 00:33:00,VALID,918.857,VALID,0,VALID,99.7319,VALID,-0.0339617,VALID,18.2145,VALID,204,VALID,0,
2000-10-08, 00:34:00,VALID,918.845,VALID,0,VALID,99.7548,VALID,-0.0509425,VALID,18.2408,VALID,194,VALID,0,
2000-10-08, 00:35:00,VALID,918.848,VALID,0,VALID,99.7625,VALID,-0.0679233,VALID,18.2402,VALID,194,VALID,0,
2000-10-08, 00:36:00,VALID,918.852,VALID,0,VALID,99.751,VALID,-0.0339617,VALID,18.2533,VALID,201,VALID,0,
2000-10-08, 00:37:00,VALID,918.851,VALID,0,VALID,99.7663,VALID,-0.0339617,VALID,18.2697,VALID,216,VALID,0,
2000-10-08, 00:38:00,VALID,918.835,VALID,0,VALID,99.7828,VALID,-0.0509425,VALID,18.2895,VALID,206,VALID,0,
2000-10-08, 00:39:00,VALID,918.832,VALID,0,VALID,99.7917,VALID,-0.0339617,VALID,18.3216,VALID,207,VALID,0,
2000-10-08, 00:40:00,VALID,918.824,VALID,0,VALID,99.8019,VALID,-0.0339617,VALID,18.3504,VALID,223,VALID,0,
2000-10-08, 00:41:00,VALID,918.812,VALID,0,VALID,99.8032,VALID,-0.0339617,VALID,18.3894,VALID,219,VALID,0,
2000-10-08, 00:42:00,VALID,918.807,VALID,0,VALID,99.7917,VALID,-0.0339617,VALID,18.3827,VALID,223,VALID,0,
2000-10-08, 00:43:00,VALID,918.793,VALID,0,VALID,99.8044,VALID,-0.0509425,VALID,18.4026,VALID,220,VALID,0,
2000-10-08, 00:44:00,VALID,918.776,VALID,0,VALID,99.8044,VALID,-0.0339617,VALID,18.3989,VALID,212,VALID,0,
2000-10-08, 00:45:00,VALID,918.758,VALID,0,VALID,99.8146,VALID,-0.101885,VALID,18.4185,VALID,219,VALID,0,
2000-10-08, 00:46:00,VALID,918.747,VALID,0,VALID,99.8133,VALID,-0.0169808,VALID,18.4217,VALID,222,VALID,0,
2000-10-08, 00:47:00,VALID,918.71,VALID,0,VALID,99.8082,VALID,-0.0509425,VALID,18.4215,VALID,216,VALID,0,
2000-10-08, 00:48:00,VALID,918.686,VALID,0,VALID,99.7993,VALID,-0.0339617,VALID,18.4316,VALID,218,VALID,0,
2000-10-08, 00:49:00,VALID,918.66,VALID,0,VALID,99.8032,VALID,0,VALID,18.4247,VALID,216,VALID,0,
2000-10-08, 00:50:00,VALID,918.626,VALID,0,VALID,99.8171,VALID,0,VALID,18.4245,VALID,212,VALID,0,
2000-10-08, 00:51:00,VALID,918.614,VALID,0,VALID,99.8184,VALID,-0.0509425,VALID,18.4344,VALID,191,VALID,0,
2000-10-08, 00:52:00,VALID,918.607,VALID,0,VALID,99.8171,VALID,-0.0679233,VALID,18.4443,VALID,152,VALID,0.299479,
2000-10-08, 00:53:00,VALID,918.605,VALID,0,VALID,99.821,VALID,-0.0339617,VALID,18.4443,VALID,147,VALID,0.0995593,
2000-10-08, 00:54:00,VALID,918.601,VALID,0,VALID,99.8273,VALID,-0.0339617,VALID,18.4415,VALID,137,VALID,0,
2000-10-08, 00:55:00,VALID,918.592,VALID,0,VALID,99.8121,VALID,-0.0679233,VALID,18.4116,VALID,110,VALID,0,
2000-10-08, 00:56:00,VALID,918.584,VALID,0,VALID,99.8146,VALID,-0.0679233,VALID,18.3996,VALID,106,VALID,0,
2000-10-08, 00:57:00,VALID,918.585,VALID,0,VALID,99.807,VALID,-0.101885,VALID,18.3737,VALID,133,VALID,0,
2000-10-08, 00:58:00,VALID,918.568,VALID,0,VALID,99.8057,VALID,-0.101885,VALID,18.3673,VALID,145,VALID,0,
2000-10-08, 00:59:00,VALID,918.562,VALID,0,VALID,99.8197,VALID,-0.0169808,VALID,18.3606,VALID,192,VALID,0,
2000-10-08, 01:00:00,VALID,918.558,VALID,0,VALID,99.807,VALID,-0.0509425,VALID,18.3606,VALID,204,VALID,0,
2000-10-08, 01:01:00,VALID,918.549,VALID,0,VALID,99.8222,VALID,-0.0169808,VALID,18.3608,VALID,208,VALID,0.295508,
2000-10-08, 01:02:00,VALID,918.528,VALID,0,VALID,99.8082,VALID,-0.0679233,VALID,18.3442,VALID,201,VALID,0.685742,
2000-10-08, 01:03:00,VALID,918.523,VALID,0,VALID,99.8133,VALID,-0.0339617,VALID,18.3283,VALID,201,VALID,0.647035,
2000-10-08, 01:04:00,VALID,918.527,VALID,0,VALID,99.8044,VALID,-0.0339617,VALID,18.3119,VALID,192,VALID,0.715144,
2000-10-08, 01:05:00,VALID,918.532,VALID,0,VALID,99.7981,VALID,-0.0849042,VALID,18.2856,VALID,182,VALID,0.82433,
2000-10-08, 01:06:00,VALID,918.529,VALID,0,VALID,99.821,VALID,-0.0339617,VALID,18.296,VALID,184,VALID,0.811098,
2000-10-08, 01:07:00,VALID,918.549,VALID,0,VALID,99.8553,VALID,-0.0679233,VALID,18.3089,VALID,182,VALID,0.903372,
2000-10-08, 01:08:00,VALID,918.551,VALID,0,VALID,99.8324,VALID,-0.0679233,VALID,18.3089,VALID,178,VALID,0.619038,
2000-10-08, 01:09:00,VALID,918.545,VALID,0,VALID,99.8807,VALID,-0.0169808,VALID,18.3248,VALID,175,VALID,0.89605,
2000-10-08, 01:10:00,VALID,918.543,VALID,0,VALID,99.8858,VALID,-0.0679233,VALID,18.3472,VALID,194,VALID,0.561849,
2000-10-08, 01:11:00,VALID,918.522,VALID,0,VALID,99.8896,VALID,-0.0509425,VALID,18.3472,VALID,193,VALID,0.846278,
2000-10-08, 01:12:00,VALID,918.51,VALID,0,VALID,99.8896,VALID,-0.0509425,VALID,18.367,VALID,214,VALID,0.593328,
2000-10-08, 01:13:00,VALID,918.493,VALID,0,VALID,99.8947,VALID,-0.0339617,VALID,18.3666,VALID,211,VALID,0.469351,
2000-10-08, 01:14:00,VALID,918.464,VALID,0,VALID,99.8985,VALID,-0.0509425,VALID,18.3832,VALID,212,VALID,0.460136,
2000-10-08, 01:15:00,VALID,918.455,VALID,0,VALID,99.8922,VALID,-0.0849042,VALID,18.37,VALID,211,VALID,0.292869,
2000-10-08, 01:16:00,VALID,918.429,VALID,0,VALID,99.8947,VALID,-0.0169808,VALID,18.3663,VALID,203,VALID,0.0529018,
2000-10-08, 01:17:00,VALID,918.422,VALID,0,VALID,99.8934,VALID,-0.0339617,VALID,18.3707,VALID,184,VALID,0.402148,
2000-10-08, 01:18:00,VALID,918.41,VALID,0,VALID,99.8973,VALID,-0.0339617,VALID,18.3474,VALID,171,VALID,0.0451172,
2000-10-08, 01:19:00,VALID,918.396,VALID,0,VALID,99.9023,VALID,-0.0169808,VALID,18.3179,VALID,178,VALID,0.0748047,
2000-10-08, 01:20:00,VALID,918.394,VALID,0,VALID,99.8845,VALID,-0.0169808,VALID,18.3158,VALID,178,VALID,0.181588,
2000-10-08, 01:21:00,VALID,918.378,VALID,0,VALID,99.8769,VALID,-0.0339617,VALID,18.2798,VALID,183,VALID,0.407552,
2000-10-08, 01:22:00,VALID,918.373,VALID,0,VALID,99.882,VALID,-0.0339617,VALID,18.2369,VALID,196,VALID,0.621652,
2000-10-08, 01:23:00,VALID,918.37,VALID,0,VALID,99.9062,VALID,-0.0339617,VALID,18.2408,VALID,191,VALID,0.769848,
2000-10-08, 01:24:00,VALID,918.367,VALID,0,VALID,99.8973,VALID,-0.0339617,VALID,18.2342,VALID,179,VALID,0.973395,
2000-10-08, 01:25:00,VALID,918.346,VALID,0,VALID,99.9049,VALID,-0.101885,VALID,18.2252,VALID,187,VALID,1.20453,
2000-10-08, 01:26:00,VALID,918.332,VALID,0,VALID,99.9151,VALID,-0.0339617,VALID,18.2088,VALID,186,VALID,1.00461,
2000-10-08, 01:27:00,VALID,918.32,VALID,0,VALID,99.9176,VALID,-0.0509425,VALID,18.2025,VALID,190,VALID,0.866741,
2000-10-08, 01:28:00,VALID,918.313,VALID,0,VALID,99.9227,VALID,-0.0339617,VALID,18.2115,VALID,204,VALID,0.846217,
2000-10-08, 01:29:00,VALID,918.287,VALID,0,VALID,99.9367,VALID,-0.0679233,VALID,18.212,VALID,190,VALID,1.11018,
2000-10-08, 01:30:00,VALID,918.263,VALID,0,VALID,99.943,VALID,-0.0169808,VALID,18.2118,VALID,185,VALID,1.06699,
2000-10-08, 01:31:00,VALID,918.239,VALID,0,VALID,99.9329,VALID,-0.0679233,VALID,18.2215,VALID,190,VALID,1.2046,
2000-10-08, 01:32:00,VALID,918.204,VALID,0,VALID,99.9532,VALID,-0.0339617,VALID,18.2348,VALID,199,VALID,1.1079,
2000-10-08, 01:33:00,VALID,918.182,VALID,0,VALID,99.9596,VALID,-0.0169808,VALID,18.2372,VALID,210,VALID,0.774523,
2000-10-08, 01:34:00,VALID,918.176,VALID,0,VALID,99.9608,VALID,-0.0679233,VALID,18.2438,VALID,208,VALID,0.449219,
2000-10-08, 01:35:00,VALID,918.168,VALID,0,VALID,99.9583,VALID,-0.0339617,VALID,18.2635,VALID,207,VALID,0.644727,
2000-10-08, 01:36:00,VALID,918.15,VALID,0,VALID,99.9608,VALID,-0.0509425,VALID,18.2605,VALID,218,VALID,0.439904,
2000-10-08, 01:37:00,VALID,918.132,VALID,0,VALID,99.9847,VALID,0,VALID,18.2764,VALID,211,VALID,0.839543,
2000-10-08, 01:38:00,VALID,918.119,VALID,0,VALID,99.9898,VALID,-0.0339617,VALID,18.2893,VALID,202,VALID,0.492857,
2000-10-08, 01:39:00,VALID,918.111,VALID,0,VALID,99.9858,VALID,-0.0339617,VALID,18.3057,VALID,199,VALID,0.527244,
2000-10-08, 01:40:00,VALID,918.087,VALID,0,VALID,99.985,VALID,-0.0169808,VALID,18.2987,VALID,190,VALID,0.634457,
2000-10-08, 01:41:00,VALID,918.07,VALID,0,VALID,99.986,VALID,-0.0339617,VALID,18.3054,VALID,194,VALID,0.838199,
2000-10-08, 01:42:00,VALID,918.046,VALID,0,VALID,99.986,VALID,-0.0339617,VALID,18.3054,VALID,187,VALID,1.01259,
2000-10-08, 01:43:00,VALID,918.01,VALID,0,VALID,99.985,VALID,-0.0339617,VALID,18.2955,VALID,185,VALID,0.799913,
2000-10-08, 01:44:00,VALID,917.986,VALID,0,VALID,99.9847,VALID,-0.0339617,VALID,18.2927,VALID,194,VALID,0.876608,
2000-10-08, 01:45:00,VALID,917.98,VALID,0,VALID,99.9812,VALID,-0.0849042,VALID,18.2865,VALID,197,VALID,0.86951,
2000-10-08, 01:46:00,VALID,917.971,VALID,0,VALID,99.9863,VALID,-0.0679233,VALID,18.2667,VALID,216,VALID,0.740184,
2000-10-08, 01:47:00,VALID,917.963,VALID,0,VALID,99.9873,VALID,-0.0849042,VALID,18.2535,VALID,204,VALID,0.951923,
2000-10-08, 01:48:00,VALID,917.963,VALID,0,VALID,99.9873,VALID,-0.0169808,VALID,18.2535,VALID,206,VALID,0.869591,
2000-10-08, 01:49:00,VALID,917.977,VALID,0,VALID,99.987,VALID,0,VALID,18.2337,VALID,204,VALID,0.601563,
2000-10-08, 01:50:00,VALID,917.965,VALID,0,VALID,99.9875,VALID,-0.0339617,VALID,18.2413,VALID,204,VALID,0.780469,
2000-10-08, 01:51:00,VALID,917.955,VALID,0,VALID,99.9873,VALID,-0.0169808,VALID,18.2344,VALID,215,VALID,0.504297,
2000-10-08, 01:52:00,VALID,917.939,VALID,0,VALID,99.9944,VALID,0,VALID,18.2378,VALID,191,VALID,0.765039,
2000-10-08, 01:53:00,VALID,917.939,VALID,0,VALID,99.999,VALID,-0.0849042,VALID,18.2443,VALID,200,VALID,0.545186,
2000-10-08, 01:54:00,VALID,917.929,VALID,0,VALID,99.999,VALID,-0.0679233,VALID,18.2639,VALID,189,VALID,0.827474,
2000-10-08, 01:55:00,VALID,917.913,VALID,0,VALID,100,VALID,-0.0339617,VALID,18.2568,VALID,180,VALID,0.877455,
2000-10-08, 01:56:00,VALID,917.924,VALID,0,VALID,99.9977,VALID,-0.0339617,VALID,18.2667,VALID,176,VALID,0.75739,
2000-10-08, 01:57:00,VALID,917.923,VALID,0,VALID,99.9977,VALID,-0.0679233,VALID,18.2701,VALID,171,VALID,0.864865,
2000-10-08, 01:58:00,VALID,917.914,VALID,0,VALID,99.998,VALID,-0.0169808,VALID,18.2411,VALID,171,VALID,0.738582,
2000-10-08, 01:59:00,VALID,917.912,VALID,0,VALID,99.998,VALID,-0.0679233,VALID,18.2284,VALID,173,VALID,0.784856,
2000-10-08, 02:00:00,VALID,917.896,VALID,0,VALID,99.9883,VALID,0,VALID,18.2053,VALID,187,VALID,0.70692,
2000-10-08, 02:01:00,VALID,917.89,VALID,0,VALID,100,VALID,0.0679233,VALID,18.2173,VALID,220,VALID,0.531661,
2000-10-08, 02:02:00,VALID,917.866,VALID,0,VALID,99.999,VALID,0.0339617,VALID,18.2104,VALID,206,VALID,0.628806,
2000-10-08, 02:03:00,VALID,917.86,VALID,0,VALID,100,VALID,0.0509425,VALID,18.2104,VALID,216,VALID,0.717188,
2000-10-08, 02:04:00,VALID,917.842,VALID,0,VALID,100,VALID,0.0849042,VALID,18.2074,VALID,211,VALID,0.451647,
2000-10-08, 02:05:00,VALID,917.829,VALID,0,VALID,99.999,VALID,0.0169808,VALID,18.2106,VALID,210,VALID,0.742399,
2000-10-08, 02:06:00,VALID,917.83,VALID,0,VALID,100,VALID,0.0679233,VALID,18.2134,VALID,211,VALID,0.635417,
2000-10-08, 02:07:00,VALID,917.825,VALID,0,VALID,100,VALID,0.0509425,VALID,18.2171,VALID,212,VALID,0.492578,
2000-10-08, 02:08:00,VALID,917.807,VALID,0,VALID,100,VALID,0.0679233,VALID,18.2233,VALID,214,VALID,0.658203,
2000-10-08, 02:09:00,VALID,917.787,VALID,0,VALID,100,VALID,0.0849042,VALID,18.2328,VALID,217,VALID,0.532853,
2000-10-08, 02:10:00,VALID,917.783,VALID,0,VALID,100,VALID,0.0509425,VALID,18.2429,VALID,209,VALID,0.2498,
2000-10-08, 02:11:00,VALID,917.759,VALID,0,VALID,100,VALID,0.0509425,VALID,18.2464,VALID,198,VALID,0.17567,
2000-10-08, 02:12:00,VALID,917.737,VALID,0,VALID,100,VALID,0.0679233,VALID,18.2332,VALID,190,VALID,0.436899,
2000-10-08, 02:13:00,VALID,917.728,VALID,0,VALID,100,VALID,0.0679233,VALID,18.2238,VALID,188,VALID,0.46176,
2000-10-08, 02:14:00,VALID,917.713,VALID,0,VALID,100,VALID,0.0509425,VALID,18.2238,VALID,189,VALID,0.639391,
2000-10-08, 02:15:00,VALID,917.706,VALID,0,VALID,100,VALID,0.0339617,VALID,18.224,VALID,192,VALID,0.487413,
2000-10-08, 02:16:00,VALID,917.691,VALID,0,VALID,100,VALID,-0.0169808,VALID,18.2381,VALID,185,VALID,0.585286,
2000-10-08, 02:17:00,VALID,917.69,VALID,0,VALID,100,VALID,-0.0169808,VALID,18.2217,VALID,182,VALID,0.555377,
2000-10-08, 02:18:00,VALID,917.674,VALID,0,VALID,100,VALID,-0.0339617,VALID,18.2219,VALID,176,VALID,0.610853,
2000-10-08, 02:19:00,VALID,917.668,VALID,0,VALID,100,VALID,-0.0169808,VALID,18.2023,VALID,175,VALID,0.396835,
2000-10-08, 02:20:00,VALID,917.649,VALID,0,VALID,100,VALID,-0.0169808,VALID,18.1728,VALID,183,VALID,0.717348,
2000-10-08, 02:21:00,VALID,917.641,VALID,0,VALID,100,VALID,-0.0169808,VALID,18.1412,VALID,187,VALID,0.736979,
2000-10-08, 02:22:00,VALID,917.619,VALID,0,VALID,100,VALID,-0.0339617,VALID,18.1345,VALID,190,VALID,0.882143,
2000-10-08, 02:23:00,VALID,917.611,VALID,0,VALID,100,VALID,-0.0169808,VALID,18.1216,VALID,204,VALID,0.531836,
2000-10-08, 02:24:00,VALID,917.599,VALID,0,VALID,100,VALID,-0.0339617,VALID,18.1149,VALID,197,VALID,0.773633,
2000-10-08, 02:25:00,VALID,917.577,VALID,0,VALID,100,VALID,-0.0169808,VALID,18.1186,VALID,190,VALID,1.00254,
2000-10-08, 02:26:00,VALID,917.555,VALID,0,VALID,100,VALID,-0.0679233,VALID,18.1089,VALID,188,VALID,0.769848,
2000-10-08, 02:27:00,VALID,917.541,VALID,0,VALID,100,VALID,-0.0169808,VALID,18.1091,VALID,187,VALID,0.819661,
2000-10-08, 02:28:00,VALID,917.523,VALID,0,VALID,100,VALID,-0.0509425,VALID,18.0992,VALID,190,VALID,1.09598,
2000-10-08, 02:29:00,VALID,917.516,VALID,0,VALID,100,VALID,0,VALID,18.0987,VALID,199,VALID,0.409628,
2000-10-08, 02:30:00,VALID,917.495,VALID,0,VALID,100,VALID,-0.0509425,VALID,18.0888,VALID,203,VALID,0.700591,
2000-10-08, 02:31:00,VALID,917.477,VALID,0,VALID,100,VALID,-0.0339617,VALID,18.1024,VALID,204,VALID,0.603766,
2000-10-08, 02:32:00,VALID,917.462,VALID,0,VALID,100,VALID,-0.0509425,VALID,18.1186,VALID,220,VALID,0.613582,
2000-10-08, 02:33:00,VALID,917.463,VALID,0,VALID,100,VALID,-0.0679233,VALID,18.1347,VALID,211,VALID,0.747545,
2000-10-08, 02:34:00,VALID,917.475,VALID,0,VALID,100,VALID,-0.0339617,VALID,18.1543,VALID,213,VALID,0.438528,
2000-10-08, 02:35:00,VALID,917.487,VALID,0,VALID,100,VALID,-0.0339617,VALID,18.1603,VALID,213,VALID,0.476362,
2000-10-08, 02:36:00,VALID,917.483,VALID,0,VALID,100,VALID,-0.0509425,VALID,18.1797,VALID,176,VALID,0.753906,
2000-10-08, 02:37:00,VALID,917.489,VALID,0,VALID,100,VALID,0,VALID,18.1797,VALID,184,VALID,0.750845,
2000-10-08, 02:38:00,VALID,917.498,VALID,0,VALID,100,VALID,0,VALID,18.1797,VALID,178,VALID,1.14421,
2000-10-08, 02:39:00,VALID,917.496,VALID,0,VALID,100,VALID,0,VALID,18.1889,VALID,185,VALID,0.877604,
2000-10-08, 02:40:00,VALID,917.502,VALID,0,VALID,100,VALID,-0.0339617,VALID,18.1862,VALID,191,VALID,0.733594,
2000-10-08, 02:41:00,VALID,917.508,VALID,0,VALID,100,VALID,-0.0169808,VALID,18.1834,VALID,191,VALID,0.929297,
2000-10-08, 02:42:00,VALID,917.518,VALID,0,VALID,100,VALID,0,VALID,18.173,VALID,197,VALID,0.633413,
2000-10-08, 02:43:00,VALID,917.494,VALID,0,VALID,100,VALID,-0.0849042,VALID,18.1799,VALID,190,VALID,0.424679,
2000-10-08, 02:44:00,VALID,917.491,VALID,0,VALID,100,VALID,-0.0169808,VALID,18.1797,VALID,198,VALID,0.633929,
2000-10-08, 02:45:00,VALID,917.478,VALID,0,VALID,100,VALID,-0.0339617,VALID,18.17,VALID,217,VALID,0.551482,
2000-10-08, 02:46:00,VALID,917.467,VALID,0,VALID,100,VALID,-0.0339617,VALID,18.1573,VALID,219,VALID,0.496299,
2000-10-08, 02:47:00,VALID,917.459,VALID,0,VALID,100,VALID,-0.0679233,VALID,18.1541,VALID,225,VALID,0.336143,
2000-10-08, 02:48:00,VALID,917.445,VALID,0,VALID,100,VALID,-0.0169808,VALID,18.1407,VALID,224,VALID,0.526476,
2000-10-08, 02:49:00,VALID,917.432,VALID,0,VALID,100,VALID,-0.0169808,VALID,18.1315,VALID,225,VALID,0.639106,
2000-10-08, 02:50:00,VALID,917.417,VALID,0,VALID,100,VALID,-0.0509425,VALID,18.1084,VALID,231,VALID,0.623621,
2000-10-08, 02:51:00,VALID,917.412,VALID,0,VALID,100,VALID,-0.0339617,VALID,18.1089,VALID,221,VALID,0.802576,
2000-10-08, 02:52:00,VALID,917.396,VALID,0,VALID,100,VALID,-0.0509425,VALID,18.1091,VALID,216,VALID,0.773638,
2000-10-08, 02:53:00,VALID,917.389,VALID,0,VALID,100,VALID,-0.0679233,VALID,18.0932,VALID,214,VALID,0.876202,
2000-10-08, 02:54:00,VALID,917.392,VALID,0,VALID,100,VALID,-0.0679233,VALID,18.0897,VALID,209,VALID,0.544071,
2000-10-08, 02:55:00,VALID,917.373,VALID,0,VALID,100,VALID,-0.0509425,VALID,18.0766,VALID,207,VALID,0.764286,
2000-10-08, 02:56:00,VALID,917.369,VALID,0,VALID,100,VALID,-0.0169808,VALID,18.0863,VALID,198,VALID,0.78418,
2000-10-08, 02:57:00,VALID,917.349,VALID,0,VALID,100,VALID,-0.0169808,VALID,18.0865,VALID,204,VALID,1.10547,
2000-10-08, 02:58:00,VALID,917.368,VALID,0,VALID,100,VALID,-0.0339617,VALID,18.0704,VALID,205,VALID,1.02969,
2000-10-08, 02:59:00,VALID,917.368,VALID,0,VALID,100,VALID,-0.0169808,VALID,18.0766,VALID,208,VALID,1.03357,
2000-10-08, 03:00:00,VALID,917.383,VALID,0,VALID,100,VALID,-0.0339617,VALID,18.0699,VALID,209,VALID,0.882813,
2000-10-08, 03:01:00,VALID,917.377,VALID,0,VALID,100,VALID,-0.0679233,VALID,18.057,VALID,206,VALID,1.1558,
2000-10-08, 03:02:00,VALID,917.374,VALID,0,VALID,100,VALID,-0.0169808,VALID,18.057,VALID,199,VALID,0.981208,
2000-10-08, 03:03:00,VALID,917.355,VALID,0,VALID,100,VALID,0,VALID,18.0572,VALID,185,VALID,0.81799,
2000-10-08, 03:04:00,VALID,917.322,VALID,0,VALID,100,VALID,-0.0679233,VALID,18.0348,VALID,192,VALID,1.22676,
2000-10-08, 03:05:00,VALID,917.305,VALID,0,VALID,100,VALID,-0.0679233,VALID,18.012,VALID,194,VALID,0.965345,
2000-10-08, 03:06:00,VALID,917.282,VALID,0,VALID,100,VALID,0,VALID,18.0219,VALID,172,VALID,0.829687,
2000-10-08, 03:07:00,VALID,917.247,VALID,0,VALID,100,VALID,-0.0339617,VALID,17.9954,VALID,179,VALID,0.767475,
2000-10-08, 03:08:00,VALID,917.241,VALID,0,VALID,100,VALID,0,VALID,18.0023,VALID,175,VALID,0.875,
2000-10-08, 03:09:00,VALID,917.235,VALID,0,VALID,100,VALID,-0.0169808,VALID,17.9859,VALID,180,VALID,0.627148,
2000-10-08, 03:10:00,VALID,917.217,VALID,0,VALID,100,VALID,-0.0169808,VALID,17.9571,VALID,175,VALID,0.687711,
2000-10-08, 03:11:00,VALID,917.216,VALID,0,VALID,100,VALID,-0.0679233,VALID,17.9218,VALID,167,VALID,0.673353,
2000-10-08, 03:12:00,VALID,917.214,VALID,0,VALID,100,VALID,-0.0339617,VALID,17.8798,VALID,174,VALID,0.730469,
2000-10-08, 03:13:00,VALID,917.212,VALID,0,VALID,100,VALID,-0.0169808,VALID,17.8505,VALID,165,VALID,0.642773,
2000-10-08, 03:14:00,VALID,917.173,VALID,0,VALID,100,VALID,-0.0339617,VALID,17.8279,VALID,169,VALID,0.708203,
2000-10-08, 03:15:00,VALID,917.156,VALID,0,VALID,100,VALID,-0.0339617,VALID,17.8152,VALID,180,VALID,0.66867,
2000-10-08, 03:16:00,VALID,917.118,VALID,0,VALID,100,VALID,-0.0169808,VALID,17.7991,VALID,184,VALID,0.769631,
2000-10-08, 03:17:00,VALID,917.099,VALID,0,VALID,100,VALID,-0.0169808,VALID,17.7795,VALID,184,VALID,0.637277,
2000-10-08, 03:18:00,VALID,917.078,VALID,0,VALID,100,VALID,-0.0339617,VALID,17.7698,VALID,186,VALID,0.744191,
2000-10-08, 03:19:00,VALID,917.056,VALID,0,VALID,100,VALID,-0.0339617,VALID,17.7539,VALID,187,VALID,0.728824,
2000-10-08, 03:20:00,VALID,917.059,VALID,0,VALID,100,VALID,-0.0339617,VALID,17.7472,VALID,188,VALID,0.765214,
2000-10-08, 03:21:00,VALID,917.068,VALID,0,VALID,100,VALID,-0.0509425,VALID,17.7606,VALID,176,VALID,0.859158,
2000-10-08, 03:22:00,VALID,917.082,VALID,0,VALID,100,VALID,-0.0679233,VALID,17.728,VALID,166,VALID,0.976997,
2000-10-08, 03:23:00,VALID,917.089,VALID,0,VALID,100,VALID,-0.0509425,VALID,17.7084,VALID,161,VALID,1.05101,
2000-10-08, 03:24:00,VALID,917.1,VALID,0,VALID,100,VALID,-0.0339617,VALID,17.6895,VALID,171,VALID,1.07306,
2000-10-08, 03:25:00,VALID,917.113,VALID,0,VALID,100,VALID,-0.0169808,VALID,17.6861,VALID,181,VALID,0.997196,
2000-10-08, 03:26:00,VALID,917.12,VALID,0,VALID,100,VALID,-0.0339617,VALID,17.7052,VALID,190,VALID,1.11178,
2000-10-08, 03:27:00,VALID,917.118,VALID,0,VALID,100,VALID,-0.0169808,VALID,17.7216,VALID,195,VALID,1.11739,
2000-10-08, 03:28:00,VALID,917.105,VALID,0,VALID,100,VALID,-0.0169808,VALID,17.7052,VALID,202,VALID,1.07388,
2000-10-08, 03:29:00,VALID,917.104,VALID,0,VALID,100,VALID,-0.0679233,VALID,17.7123,VALID,194,VALID,1.16992,
2000-10-08, 03:30:00,VALID,917.091,VALID,0,VALID,100,VALID,-0.0169808,VALID,17.7119,VALID,191,VALID,0.959375,
2000-10-08, 03:31:00,VALID,917.082,VALID,0,VALID,100,VALID,-0.0169808,VALID,17.7121,VALID,202,VALID,1.00391,
2000-10-08, 03:32:00,VALID,917.061,VALID,0,VALID,100,VALID,-0.0339617,VALID,17.725,VALID,191,VALID,0.76098,
2000-10-08, 03:33:00,VALID,917.05,VALID,0,VALID,100,VALID,-0.0169808,VALID,17.7474,VALID,202,VALID,0.777561,
2000-10-08, 03:34:00,VALID,917.033,VALID,0,VALID,100,VALID,-0.0339617,VALID,17.7442,VALID,187,VALID,0.910937,
2000-10-08, 03:35:00,VALID,917.022,VALID,0,VALID,100,VALID,-0.0339617,VALID,17.744,VALID,200,VALID,0.325802,